Year,Month,Day,Hour,Minute,Value (Times are PST for temperature in C)
2008,09,30,00,00,11.90
2008,09,30,00,01,11.90
2008,09,30,00,02,11.90
2008,09,30,00,03,11.90
2008,09,30,00,04,11.80
2008,09,30,00,05,11.80
2008,09,30,00,06,11.80
2008,09,30,00,07,11.80
2008,09,30,00,08,11.80
2008,09,30,00,09,11.80
2008,09,30,00,10,11.80
2008,09,30,00,11,11.80
2008,09,30,00,12,11.80
2008,09,30,00,13,11.80
2008,09,30,00,14,11.80
2008,09,30,00,15,11.80
2008,09,30,00,16,11.80
2008,09,30,00,17,11.80
2008,09,30,00,18,11.80
2008,09,30,00,19,11.90
2008,09,30,00,20,11.90
2008,09,30,00,21,11.90
2008,09,30,00,22,11.80
2008,09,30,00,23,11.80
2008,09,30,00,24,11.80
2008,09,30,00,25,11.80
2008,09,30,00,26,11.80
2008,09,30,00,27,11.80
2008,09,30,00,28,11.80
2008,09,30,00,29,11.80
2008,09,30,00,30,11.80
2008,09,30,00,31,11.80
2008,09,30,00,32,11.80
2008,09,30,00,33,11.80
2008,09,30,00,34,11.80
2008,09,30,00,35,11.80
2008,09,30,00,36,11.80
2008,09,30,00,37,11.80
2008,09,30,00,38,11.80
2008,09,30,00,39,11.70
2008,09,30,00,40,11.70
2008,09,30,00,41,11.70
2008,09,30,00,42,11.70
2008,09,30,00,43,11.70
2008,09,30,00,44,11.70
2008,09,30,00,45,11.60
2008,09,30,00,46,11.60
2008,09,30,00,47,11.50
2008,09,30,00,48,11.50
2008,09,30,00,49,11.40
2008,09,30,00,50,11.30
2008,09,30,00,51,11.30
2008,09,30,00,52,11.30
2008,09,30,00,53,11.30
2008,09,30,00,54,11.30
2008,09,30,00,55,11.40
2008,09,30,00,56,11.40
2008,09,30,00,57,11.40
2008,09,30,00,58,11.40
2008,09,30,00,59,11.40
2008,09,30,01,00,11.40
2008,09,30,01,01,11.40
2008,09,30,01,02,11.50
2008,09,30,01,03,11.50
2008,09,30,01,04,11.50
2008,09,30,01,05,11.50
2008,09,30,01,06,11.50
2008,09,30,01,07,11.50
2008,09,30,01,08,11.50
2008,09,30,01,09,11.50
2008,09,30,01,10,11.50
2008,09,30,01,11,11.50
2008,09,30,01,12,11.60
2008,09,30,01,13,11.60
2008,09,30,01,14,11.60
2008,09,30,01,15,11.60
2008,09,30,01,16,11.60
2008,09,30,01,17,11.60
2008,09,30,01,18,11.60
2008,09,30,01,19,11.60
2008,09,30,01,20,11.60
2008,09,30,01,21,11.60
2008,09,30,01,22,11.60
2008,09,30,01,23,11.60
2008,09,30,01,24,11.70
2008,09,30,01,25,11.70
2008,09,30,01,26,11.70
2008,09,30,01,27,11.70
2008,09,30,01,28,11.70
2008,09,30,01,29,11.70
2008,09,30,01,30,11.80
2008,09,30,01,31,11.80
2008,09,30,01,32,11.80
2008,09,30,01,33,11.70
2008,09,30,01,34,11.70
2008,09,30,01,35,11.70
2008,09,30,01,36,11.70
2008,09,30,01,37,11.70
2008,09,30,01,38,11.70
2008,09,30,01,39,11.70
2008,09,30,01,40,11.70
2008,09,30,01,41,11.70
2008,09,30,01,42,11.60
2008,09,30,01,43,11.60
2008,09,30,01,44,11.60
2008,09,30,01,45,11.60
2008,09,30,01,46,11.60
2008,09,30,01,47,11.60
2008,09,30,01,48,11.60
2008,09,30,01,49,11.60
2008,09,30,01,50,11.60
2008,09,30,01,51,11.60
2008,09,30,01,52,11.60
2008,09,30,01,53,11.50
2008,09,30,01,54,11.50
2008,09,30,01,55,11.50
2008,09,30,01,56,11.50
2008,09,30,01,57,11.50
2008,09,30,01,58,11.50
2008,09,30,01,59,11.50
2008,09,30,02,00,11.50
2008,09,30,02,01,11.60
2008,09,30,02,02,11.60
2008,09,30,02,03,11.60
2008,09,30,02,04,11.60
2008,09,30,02,05,11.50
2008,09,30,02,06,11.50
2008,09,30,02,07,11.50
2008,09,30,02,08,11.50
2008,09,30,02,09,11.50
2008,09,30,02,10,11.40
2008,09,30,02,11,11.40
2008,09,30,02,12,11.40
2008,09,30,02,13,11.40
2008,09,30,02,14,11.50
2008,09,30,02,15,11.50
2008,09,30,02,16,11.50
2008,09,30,02,17,11.50
2008,09,30,02,18,11.50
2008,09,30,02,19,11.50
2008,09,30,02,20,11.50
2008,09,30,02,21,11.60
2008,09,30,02,22,11.60
2008,09,30,02,23,11.60
2008,09,30,02,24,11.60
2008,09,30,02,25,11.50
2008,09,30,02,26,11.50
2008,09,30,02,27,11.50
2008,09,30,02,28,11.40
2008,09,30,02,29,11.40
2008,09,30,02,30,11.40
2008,09,30,02,31,11.40
2008,09,30,02,32,11.40
2008,09,30,02,33,11.30
2008,09,30,02,34,11.30
2008,09,30,02,35,11.30
2008,09,30,02,36,11.30
2008,09,30,02,37,11.30
2008,09,30,02,38,11.30
2008,09,30,02,39,11.30
2008,09,30,02,40,11.30
2008,09,30,02,41,11.30
2008,09,30,02,42,11.30
2008,09,30,02,43,11.30
2008,09,30,02,44,11.30
2008,09,30,02,45,11.30
2008,09,30,02,46,11.30
2008,09,30,02,47,11.30
2008,09,30,02,48,11.30
2008,09,30,02,49,11.30
2008,09,30,02,50,11.30
2008,09,30,02,51,11.30
2008,09,30,02,52,11.40
2008,09,30,02,53,11.40
2008,09,30,02,54,11.40
2008,09,30,02,55,11.30
2008,09,30,02,56,11.30
2008,09,30,02,57,11.30
2008,09,30,02,58,11.30
2008,09,30,02,59,11.30
2008,09,30,03,00,11.30
2008,09,30,03,01,11.30
2008,09,30,03,02,11.30
2008,09,30,03,03,11.40
2008,09,30,03,04,11.40
2008,09,30,03,05,11.30
2008,09,30,03,06,11.30
2008,09,30,03,07,11.30
2008,09,30,03,08,11.30
2008,09,30,03,09,11.30
2008,09,30,03,10,11.30
2008,09,30,03,11,11.20
2008,09,30,03,12,11.20
2008,09,30,03,13,11.20
2008,09,30,03,14,11.20
2008,09,30,03,15,11.20
2008,09,30,03,16,11.20
2008,09,30,03,17,11.20
2008,09,30,03,18,11.20
2008,09,30,03,19,11.20
2008,09,30,03,20,11.20
2008,09,30,03,21,11.20
2008,09,30,03,22,11.20
2008,09,30,03,23,11.20
2008,09,30,03,24,11.20
2008,09,30,03,25,11.20
2008,09,30,03,26,11.20
2008,09,30,03,27,11.10
2008,09,30,03,28,11.10
2008,09,30,03,29,11.10
2008,09,30,03,30,11.00
2008,09,30,03,31,11.00
2008,09,30,03,32,10.90
2008,09,30,03,33,10.90
2008,09,30,03,34,10.80
2008,09,30,03,35,10.80
2008,09,30,03,36,10.70
2008,09,30,03,37,10.70
2008,09,30,03,38,10.70
2008,09,30,03,39,10.70
2008,09,30,03,40,10.70
2008,09,30,03,41,10.70
2008,09,30,03,42,10.70
2008,09,30,03,43,10.70
2008,09,30,03,44,10.70
2008,09,30,03,45,10.70
2008,09,30,03,46,10.80
2008,09,30,03,47,10.80
2008,09,30,03,48,10.80
2008,09,30,03,49,10.80
2008,09,30,03,50,10.80
2008,09,30,03,51,10.90
2008,09,30,03,52,11.00
2008,09,30,03,53,11.10
2008,09,30,03,54,11.20
2008,09,30,03,55,11.20
2008,09,30,03,56,11.30
2008,09,30,03,57,11.20
2008,09,30,03,58,11.20
2008,09,30,03,59,11.20
2008,09,30,04,00,11.20
2008,09,30,04,01,11.20
2008,09,30,04,02,11.20
2008,09,30,04,03,11.20
2008,09,30,04,04,11.20
2008,09,30,04,05,11.20
2008,09,30,04,06,11.10
2008,09,30,04,07,11.10
2008,09,30,04,08,11.10
2008,09,30,04,09,11.00
2008,09,30,04,10,10.90
2008,09,30,04,11,10.90
2008,09,30,04,12,10.90
2008,09,30,04,13,10.90
2008,09,30,04,14,10.90
2008,09,30,04,15,10.90
2008,09,30,04,16,10.90
2008,09,30,04,17,10.90
2008,09,30,04,18,10.90
2008,09,30,04,19,10.90
2008,09,30,04,20,10.80
2008,09,30,04,21,10.80
2008,09,30,04,22,10.80
2008,09,30,04,23,10.80
2008,09,30,04,24,10.70
2008,09,30,04,25,10.70
2008,09,30,04,26,10.70
2008,09,30,04,27,10.70
2008,09,30,04,28,10.70
2008,09,30,04,29,10.60
2008,09,30,04,30,10.60
2008,09,30,04,31,10.50
2008,09,30,04,32,10.50
2008,09,30,04,33,10.50
2008,09,30,04,34,10.50
2008,09,30,04,35,10.50
2008,09,30,04,36,10.40
2008,09,30,04,37,10.40
2008,09,30,04,38,10.40
2008,09,30,04,39,10.40
2008,09,30,04,40,10.40
2008,09,30,04,41,10.30
2008,09,30,04,42,10.30
2008,09,30,04,43,10.40
2008,09,30,04,44,10.40
2008,09,30,04,45,10.40
2008,09,30,04,46,10.40
2008,09,30,04,47,10.40
2008,09,30,04,48,10.40
2008,09,30,04,49,10.30
2008,09,30,04,50,10.30
2008,09,30,04,51,10.20
2008,09,30,04,52,10.30
2008,09,30,04,53,10.30
2008,09,30,04,54,10.30
2008,09,30,04,55,10.30
2008,09,30,04,56,10.30
2008,09,30,04,57,10.30
2008,09,30,04,58,10.30
2008,09,30,04,59,10.20
2008,09,30,05,00,10.20
2008,09,30,05,01,10.20
2008,09,30,05,02,10.20
2008,09,30,05,03,10.10
2008,09,30,05,04,10.10
2008,09,30,05,05,10.10
2008,09,30,05,06,10.10
2008,09,30,05,07,10.10
2008,09,30,05,08,10.10
2008,09,30,05,09,10.10
2008,09,30,05,10,10.20
2008,09,30,05,11,10.30
2008,09,30,05,12,10.30
2008,09,30,05,13,10.30
2008,09,30,05,14,10.40
2008,09,30,05,15,10.40
2008,09,30,05,16,10.40
2008,09,30,05,17,10.40
2008,09,30,05,18,10.40
2008,09,30,05,19,10.30
2008,09,30,05,20,10.30
2008,09,30,05,21,10.30
2008,09,30,05,22,10.30
2008,09,30,05,23,10.30
2008,09,30,05,24,10.30
2008,09,30,05,25,10.30
2008,09,30,05,26,10.30
2008,09,30,05,27,10.30
2008,09,30,05,28,10.30
2008,09,30,05,29,10.30
2008,09,30,05,30,10.30
2008,09,30,05,31,10.30
2008,09,30,05,32,10.30
2008,09,30,05,33,10.30
2008,09,30,05,34,10.30
2008,09,30,05,35,10.40
2008,09,30,05,36,10.40
2008,09,30,05,37,10.40
2008,09,30,05,38,10.40
2008,09,30,05,39,10.50
2008,09,30,05,40,10.50
2008,09,30,05,41,10.50
2008,09,30,05,42,10.50
2008,09,30,05,43,10.50
2008,09,30,05,44,10.50
2008,09,30,05,45,10.50
2008,09,30,05,46,10.40
2008,09,30,05,47,10.40
2008,09,30,05,48,10.40
2008,09,30,05,49,10.40
2008,09,30,05,50,10.30
2008,09,30,05,51,10.30
2008,09,30,05,52,10.30
2008,09,30,05,53,10.30
2008,09,30,05,54,10.30
2008,09,30,05,55,10.30
2008,09,30,05,56,10.30
2008,09,30,05,57,10.30
2008,09,30,05,58,10.30
2008,09,30,05,59,10.30
2008,09,30,06,00,10.30
2008,09,30,06,01,10.30
2008,09,30,06,02,10.20
2008,09,30,06,03,10.20
2008,09,30,06,04,10.10
2008,09,30,06,05,10.00
2008,09,30,06,06,10.00
2008,09,30,06,07,10.00
2008,09,30,06,08,10.00
2008,09,30,06,09,10.00
2008,09,30,06,10,10.00
2008,09,30,06,11,10.10
2008,09,30,06,12,10.10
2008,09,30,06,13,10.10
2008,09,30,06,14,10.10
2008,09,30,06,15,10.10
2008,09,30,06,16,10.10
2008,09,30,06,17,10.10
2008,09,30,06,18,10.10
2008,09,30,06,19,10.20
2008,09,30,06,20,10.20
2008,09,30,06,21,10.20
2008,09,30,06,22,10.20
2008,09,30,06,23,10.30
2008,09,30,06,24,10.30
2008,09,30,06,25,10.30
2008,09,30,06,26,10.30
2008,09,30,06,27,10.30
2008,09,30,06,28,10.30
2008,09,30,06,29,10.30
2008,09,30,06,30,10.30
2008,09,30,06,31,10.30
2008,09,30,06,32,10.30
2008,09,30,06,33,10.30
2008,09,30,06,34,10.20
2008,09,30,06,35,10.20
2008,09,30,06,36,10.20
2008,09,30,06,37,10.20
2008,09,30,06,38,10.20
2008,09,30,06,39,10.20
2008,09,30,06,40,10.20
2008,09,30,06,41,10.20
2008,09,30,06,42,10.10
2008,09,30,06,43,10.10
2008,09,30,06,44,10.10
2008,09,30,06,45,10.10
2008,09,30,06,46,10.10
2008,09,30,06,47,10.10
2008,09,30,06,48,10.10
2008,09,30,06,49,10.00
2008,09,30,06,50,10.00
2008,09,30,06,51,10.00
2008,09,30,06,52,10.00
2008,09,30,06,53,10.00
2008,09,30,06,54,10.00
2008,09,30,06,55,10.00
2008,09,30,06,56,10.00
2008,09,30,06,57,9.90
2008,09,30,06,58,9.90
2008,09,30,06,59,9.90
2008,09,30,07,00,9.90
2008,09,30,07,01,9.90
2008,09,30,07,02,9.80
2008,09,30,07,03,9.80
2008,09,30,07,04,9.80
2008,09,30,07,05,9.80
2008,09,30,07,06,9.80
2008,09,30,07,07,9.80
2008,09,30,07,08,9.80
2008,09,30,07,09,9.80
2008,09,30,07,10,9.80
2008,09,30,07,11,9.70
2008,09,30,07,12,9.70
2008,09,30,07,13,9.70
2008,09,30,07,14,9.70
2008,09,30,07,15,9.70
2008,09,30,07,16,9.70
2008,09,30,07,17,9.70
2008,09,30,07,18,9.70
2008,09,30,07,19,9.60
2008,09,30,07,20,9.60
2008,09,30,07,21,9.60
2008,09,30,07,22,9.50
2008,09,30,07,23,9.50
2008,09,30,07,24,9.50
2008,09,30,07,25,9.50
2008,09,30,07,26,9.40
2008,09,30,07,27,9.40
2008,09,30,07,28,9.40
2008,09,30,07,29,9.40
2008,09,30,07,30,9.40
2008,09,30,07,31,9.40
2008,09,30,07,32,9.40
2008,09,30,07,33,9.50
2008,09,30,07,34,9.60
2008,09,30,07,35,9.60
2008,09,30,07,36,9.60
2008,09,30,07,37,9.60
2008,09,30,07,38,9.60
2008,09,30,07,39,9.70
2008,09,30,07,40,9.70
2008,09,30,07,41,9.70
2008,09,30,07,42,9.70
2008,09,30,07,43,9.70
2008,09,30,07,44,9.80
2008,09,30,07,45,9.80
2008,09,30,07,46,9.80
2008,09,30,07,47,9.80
2008,09,30,07,48,9.80
2008,09,30,07,49,9.90
2008,09,30,07,50,9.90
2008,09,30,07,51,9.90
2008,09,30,07,52,9.90
2008,09,30,07,53,9.90
2008,09,30,07,54,10.00
2008,09,30,07,55,10.00
2008,09,30,07,56,10.10
2008,09,30,07,57,10.10
2008,09,30,07,58,10.10
2008,09,30,07,59,10.20
2008,09,30,08,00,10.20
2008,09,30,08,01,10.20
2008,09,30,08,02,10.20
2008,09,30,08,03,10.20
2008,09,30,08,04,10.30
2008,09,30,08,05,10.30
2008,09,30,08,06,10.30
2008,09,30,08,07,10.30
2008,09,30,08,08,10.40
2008,09,30,08,09,10.40
2008,09,30,08,10,10.50
2008,09,30,08,11,10.50
2008,09,30,08,12,10.50
2008,09,30,08,13,10.60
2008,09,30,08,14,10.70
2008,09,30,08,15,10.70
2008,09,30,08,16,10.70
2008,09,30,08,17,10.70
2008,09,30,08,18,10.80
2008,09,30,08,19,10.80
2008,09,30,08,20,10.90
2008,09,30,08,21,10.90
2008,09,30,08,22,11.00
2008,09,30,08,23,11.10
2008,09,30,08,24,11.10
2008,09,30,08,25,11.20
2008,09,30,08,26,11.20
2008,09,30,08,27,11.20
2008,09,30,08,28,11.30
2008,09,30,08,29,11.30
2008,09,30,08,30,11.30
2008,09,30,08,31,11.30
2008,09,30,08,32,11.30
2008,09,30,08,33,11.30
2008,09,30,08,34,11.40
2008,09,30,08,35,11.40
2008,09,30,08,36,11.40
2008,09,30,08,37,11.40
2008,09,30,08,38,11.50
2008,09,30,08,39,11.50
2008,09,30,08,40,11.60
2008,09,30,08,41,11.60
2008,09,30,08,42,11.60
2008,09,30,08,43,11.70
2008,09,30,08,44,11.70
2008,09,30,08,45,11.70
2008,09,30,08,46,11.70
2008,09,30,08,47,11.80
2008,09,30,08,48,11.80
2008,09,30,08,49,11.90
2008,09,30,08,50,11.90
2008,09,30,08,51,11.90
2008,09,30,08,52,12.00
2008,09,30,08,53,12.00
2008,09,30,08,54,12.10
2008,09,30,08,55,12.10
2008,09,30,08,56,12.20
2008,09,30,08,57,12.20
2008,09,30,08,58,12.20
2008,09,30,08,59,12.30
2008,09,30,09,00,12.30
2008,09,30,09,01,12.40
2008,09,30,09,02,12.50
2008,09,30,09,03,12.50
2008,09,30,09,04,12.60
2008,09,30,09,05,12.60
2008,09,30,09,06,12.70
2008,09,30,09,07,12.70
2008,09,30,09,08,12.80
2008,09,30,09,09,12.80
2008,09,30,09,10,12.80
2008,09,30,09,11,12.90
2008,09,30,09,12,12.90
2008,09,30,09,13,13.00
2008,09,30,09,14,13.00
2008,09,30,09,15,13.00
2008,09,30,09,16,13.10
2008,09,30,09,17,13.10
2008,09,30,09,18,13.10
2008,09,30,09,19,13.20
2008,09,30,09,20,13.20
2008,09,30,09,21,13.30
2008,09,30,09,22,13.30
2008,09,30,09,23,13.40
2008,09,30,09,24,13.40
2008,09,30,09,25,13.50
2008,09,30,09,26,13.60
2008,09,30,09,27,13.60
2008,09,30,09,28,13.70
2008,09,30,09,29,13.80
2008,09,30,09,30,13.80
2008,09,30,09,31,13.80
2008,09,30,09,32,13.90
2008,09,30,09,33,14.00
2008,09,30,09,34,14.10
2008,09,30,09,35,14.20
2008,09,30,09,36,14.30
2008,09,30,09,37,14.40
2008,09,30,09,38,14.40
2008,09,30,09,39,14.50
2008,09,30,09,40,14.60
2008,09,30,09,41,14.60
2008,09,30,09,42,14.70
2008,09,30,09,43,14.70
2008,09,30,09,44,14.80
2008,09,30,09,45,14.80
2008,09,30,09,46,14.90
2008,09,30,09,47,15.00
2008,09,30,09,48,15.00
2008,09,30,09,49,15.00
2008,09,30,09,50,15.00
2008,09,30,09,51,15.00
2008,09,30,09,52,15.10
2008,09,30,09,53,15.20
2008,09,30,09,54,15.30
2008,09,30,09,55,15.30
2008,09,30,09,56,15.40
2008,09,30,09,57,15.50
2008,09,30,09,58,15.50
2008,09,30,09,59,15.60
2008,09,30,10,00,15.70
2008,09,30,10,01,15.80
2008,09,30,10,02,15.90
2008,09,30,10,03,16.00
2008,09,30,10,04,16.20
2008,09,30,10,05,16.40
2008,09,30,10,06,16.60
2008,09,30,10,07,16.80
2008,09,30,10,08,17.10
2008,09,30,10,09,17.30
2008,09,30,10,10,17.40
2008,09,30,10,11,17.60
2008,09,30,10,12,17.80
2008,09,30,10,13,18.00
2008,09,30,10,14,18.10
2008,09,30,10,15,18.20
2008,09,30,10,16,18.20
2008,09,30,10,17,18.30
2008,09,30,10,18,18.30
2008,09,30,10,19,18.40
2008,09,30,10,20,18.50
2008,09,30,10,21,18.60
2008,09,30,10,22,18.70
2008,09,30,10,23,18.80
2008,09,30,10,24,18.90
2008,09,30,10,25,19.00
2008,09,30,10,26,19.10
2008,09,30,10,27,19.10
2008,09,30,10,28,19.20
2008,09,30,10,29,19.30
2008,09,30,10,30,19.40
2008,09,30,10,31,19.40
2008,09,30,10,32,19.40
2008,09,30,10,33,19.40
2008,09,30,10,34,19.40
2008,09,30,10,35,19.40
2008,09,30,10,36,19.40
2008,09,30,10,37,19.40
2008,09,30,10,38,19.40
2008,09,30,10,39,19.50
2008,09,30,10,40,19.50
2008,09,30,10,41,19.60
2008,09,30,10,42,19.60
2008,09,30,10,43,19.70
2008,09,30,10,44,19.80
2008,09,30,10,45,19.80
2008,09,30,10,46,19.80
2008,09,30,10,47,19.70
2008,09,30,10,48,19.60
2008,09,30,10,49,19.40
2008,09,30,10,50,19.30
2008,09,30,10,51,19.30
2008,09,30,10,52,19.20
2008,09,30,10,53,19.20
2008,09,30,10,54,19.10
2008,09,30,10,55,19.10
2008,09,30,10,56,19.10
2008,09,30,10,57,19.00
2008,09,30,10,58,18.80
2008,09,30,10,59,18.70
2008,09,30,11,00,18.50
2008,09,30,11,01,18.40
2008,09,30,11,02,18.20
2008,09,30,11,03,18.10
2008,09,30,11,04,17.90
2008,09,30,11,05,17.80
2008,09,30,11,06,17.60
2008,09,30,11,07,17.60
2008,09,30,11,08,17.50
2008,09,30,11,09,17.40
2008,09,30,11,10,17.30
2008,09,30,11,11,17.20
2008,09,30,11,12,17.20
2008,09,30,11,13,17.20
2008,09,30,11,14,17.20
2008,09,30,11,15,17.20
2008,09,30,11,16,17.20
2008,09,30,11,17,17.20
2008,09,30,11,18,17.10
2008,09,30,11,19,17.10
2008,09,30,11,20,17.10
2008,09,30,11,21,17.10
2008,09,30,11,22,17.10
2008,09,30,11,23,17.20
2008,09,30,11,24,17.20
2008,09,30,11,25,17.20
2008,09,30,11,26,17.20
2008,09,30,11,27,17.20
2008,09,30,11,28,17.20
2008,09,30,11,29,17.10
2008,09,30,11,30,17.10
2008,09,30,11,31,17.00
2008,09,30,11,32,16.90
2008,09,30,11,33,16.90
2008,09,30,11,34,16.80
2008,09,30,11,35,16.80
2008,09,30,11,36,16.80
2008,09,30,11,37,16.80
2008,09,30,11,38,16.70
2008,09,30,11,39,16.70
2008,09,30,11,40,16.80
2008,09,30,11,41,16.80
2008,09,30,11,42,16.80
2008,09,30,11,43,16.90
2008,09,30,11,44,16.90
2008,09,30,11,45,17.00
2008,09,30,11,46,17.10
2008,09,30,11,47,17.20
2008,09,30,11,48,17.30
2008,09,30,11,49,17.50
2008,09,30,11,50,17.60
2008,09,30,11,51,17.70
2008,09,30,11,52,17.80
2008,09,30,11,53,18.00
2008,09,30,11,54,18.20
2008,09,30,11,55,18.40
2008,09,30,11,56,18.50
2008,09,30,11,57,18.60
2008,09,30,11,58,18.70
2008,09,30,11,59,18.80
2008,09,30,12,00,18.90
2008,09,30,12,01,19.00
2008,09,30,12,02,19.10
2008,09,30,12,03,19.20
2008,09,30,12,04,19.20
2008,09,30,12,05,19.30
2008,09,30,12,06,19.30
2008,09,30,12,07,19.40
2008,09,30,12,08,19.40
2008,09,30,12,09,19.40
2008,09,30,12,10,19.40
2008,09,30,12,11,19.40
2008,09,30,12,12,19.40
2008,09,30,12,13,19.40
2008,09,30,12,14,19.40
2008,09,30,12,15,19.40
2008,09,30,12,16,19.40
2008,09,30,12,17,19.40
2008,09,30,12,18,19.50
2008,09,30,12,19,19.50
2008,09,30,12,20,19.70
2008,09,30,12,21,19.70
2008,09,30,12,22,19.80
2008,09,30,12,23,19.90
2008,09,30,12,24,20.00
2008,09,30,12,25,20.00
2008,09,30,12,26,20.00
2008,09,30,12,27,19.90
2008,09,30,12,28,19.90
2008,09,30,12,29,19.80
2008,09,30,12,30,19.80
2008,09,30,12,31,19.80
2008,09,30,12,32,19.80
2008,09,30,12,33,19.70
2008,09,30,12,34,19.70
2008,09,30,12,35,19.70
2008,09,30,12,36,19.80
2008,09,30,12,37,19.80
2008,09,30,12,38,19.80
2008,09,30,12,39,19.80
2008,09,30,12,40,19.80
2008,09,30,12,41,19.80
2008,09,30,12,42,19.70
2008,09,30,12,43,19.70
2008,09,30,12,44,19.70
2008,09,30,12,45,19.70
2008,09,30,12,46,19.70
2008,09,30,12,47,19.70
2008,09,30,12,48,19.70
2008,09,30,12,49,19.70
2008,09,30,12,50,19.60
2008,09,30,12,51,19.60
2008,09,30,12,52,19.60
2008,09,30,12,53,19.70
2008,09,30,12,54,19.70
2008,09,30,12,55,19.80
2008,09,30,12,56,19.80
2008,09,30,12,57,19.80
2008,09,30,12,58,19.90
2008,09,30,12,59,19.90
2008,09,30,13,00,19.90
2008,09,30,13,01,19.90
2008,09,30,13,02,19.90
2008,09,30,13,03,19.90
2008,09,30,13,04,19.80
2008,09,30,13,05,19.80
2008,09,30,13,06,19.70
2008,09,30,13,07,19.70
2008,09,30,13,08,19.70
2008,09,30,13,09,19.70
2008,09,30,13,10,19.70
2008,09,30,13,11,19.70
2008,09,30,13,12,19.70
2008,09,30,13,13,19.70
2008,09,30,13,14,19.60
2008,09,30,13,15,19.60
2008,09,30,13,16,19.60
2008,09,30,13,17,19.70
2008,09,30,13,18,19.70
2008,09,30,13,19,19.70
2008,09,30,13,20,19.70
2008,09,30,13,21,19.70
2008,09,30,13,22,19.70
2008,09,30,13,23,19.70
2008,09,30,13,24,19.70
2008,09,30,13,25,19.70
2008,09,30,13,26,19.70
2008,09,30,13,27,19.70
2008,09,30,13,28,19.70
2008,09,30,13,29,19.70
2008,09,30,13,30,19.70
2008,09,30,13,31,19.70
2008,09,30,13,32,19.80
2008,09,30,13,33,19.80
2008,09,30,13,34,19.80
2008,09,30,13,35,19.90
2008,09,30,13,36,20.00
2008,09,30,13,37,20.10
2008,09,30,13,38,20.20
2008,09,30,13,39,20.20
2008,09,30,13,40,20.20
2008,09,30,13,41,20.30
2008,09,30,13,42,20.20
2008,09,30,13,43,20.20
2008,09,30,13,44,20.10
2008,09,30,13,45,20.00
2008,09,30,13,46,19.90
2008,09,30,13,47,19.90
2008,09,30,13,48,19.80
2008,09,30,13,49,19.80
2008,09,30,13,50,19.80
2008,09,30,13,51,19.80
2008,09,30,13,52,19.80
2008,09,30,13,53,19.80
2008,09,30,13,54,19.90
2008,09,30,13,55,20.00
2008,09,30,13,56,20.00
2008,09,30,13,57,20.10
2008,09,30,13,58,20.10
2008,09,30,13,59,20.20
2008,09,30,14,00,20.20
2008,09,30,14,01,20.20
2008,09,30,14,02,20.30
2008,09,30,14,03,20.50
2008,09,30,14,04,20.50
2008,09,30,14,05,20.60
2008,09,30,14,06,20.60
2008,09,30,14,07,20.70
2008,09,30,14,08,20.70
2008,09,30,14,09,20.80
2008,09,30,14,10,20.80
2008,09,30,14,11,20.80
2008,09,30,14,12,20.80
2008,09,30,14,13,20.80
2008,09,30,14,14,20.80
2008,09,30,14,15,20.70
2008,09,30,14,16,20.70
2008,09,30,14,17,20.70
2008,09,30,14,18,20.80
2008,09,30,14,19,20.80
2008,09,30,14,20,20.80
2008,09,30,14,21,20.80
2008,09,30,14,22,20.90
2008,09,30,14,23,20.90
2008,09,30,14,24,20.90
2008,09,30,14,25,20.90
2008,09,30,14,26,20.90
2008,09,30,14,27,20.80
2008,09,30,14,28,20.80
2008,09,30,14,29,20.80
2008,09,30,14,30,20.80
2008,09,30,14,31,20.80
2008,09,30,14,32,20.80
2008,09,30,14,33,20.70
2008,09,30,14,34,20.70
2008,09,30,14,35,20.60
2008,09,30,14,36,20.60
2008,09,30,14,37,20.70
2008,09,30,14,38,20.60
2008,09,30,14,39,20.60
2008,09,30,14,40,20.50
2008,09,30,14,41,20.50
2008,09,30,14,42,20.40
2008,09,30,14,43,20.30
2008,09,30,14,44,20.20
2008,09,30,14,45,20.20
2008,09,30,14,46,20.10
2008,09,30,14,47,20.00
2008,09,30,14,48,19.90
2008,09,30,14,49,19.90
2008,09,30,14,50,19.80
2008,09,30,14,51,19.80
2008,09,30,14,52,19.70
2008,09,30,14,53,19.70
2008,09,30,14,54,19.60
2008,09,30,14,55,19.60
2008,09,30,14,56,19.70
2008,09,30,14,57,19.70
2008,09,30,14,58,19.70
2008,09,30,14,59,19.70
2008,09,30,15,00,19.70
2008,09,30,15,01,19.70
2008,09,30,15,02,19.70
2008,09,30,15,03,19.70
2008,09,30,15,04,19.70
2008,09,30,15,05,19.70
2008,09,30,15,06,19.70
2008,09,30,15,07,19.70
2008,09,30,15,08,19.70
2008,09,30,15,09,19.60
2008,09,30,15,10,19.60
2008,09,30,15,11,19.70
2008,09,30,15,12,19.70
2008,09,30,15,13,19.70
2008,09,30,15,14,19.80
2008,09,30,15,15,19.90
2008,09,30,15,16,20.00
2008,09,30,15,17,20.00
2008,09,30,15,18,20.10
2008,09,30,15,19,20.10
2008,09,30,15,20,20.10
2008,09,30,15,21,20.10
2008,09,30,15,22,20.20
2008,09,30,15,23,20.20
2008,09,30,15,24,20.20
2008,09,30,15,25,20.20
2008,09,30,15,26,20.30
2008,09,30,15,27,20.30
2008,09,30,15,28,20.30
2008,09,30,15,29,20.40
2008,09,30,15,30,20.40
2008,09,30,15,31,20.40
2008,09,30,15,32,20.30
2008,09,30,15,33,20.30
2008,09,30,15,34,20.30
2008,09,30,15,35,20.40
2008,09,30,15,36,20.40
2008,09,30,15,37,20.50
2008,09,30,15,38,20.50
2008,09,30,15,39,20.60
2008,09,30,15,40,20.60
2008,09,30,15,41,20.60
2008,09,30,15,42,20.60
2008,09,30,15,43,20.60
2008,09,30,15,44,20.60
2008,09,30,15,45,20.60
2008,09,30,15,46,20.60
2008,09,30,15,47,20.60
2008,09,30,15,48,20.50
2008,09,30,15,49,20.50
2008,09,30,15,50,20.50
2008,09,30,15,51,20.50
2008,09,30,15,52,20.60
2008,09,30,15,53,20.60
2008,09,30,15,54,20.50
2008,09,30,15,55,20.50
2008,09,30,15,56,20.40
2008,09,30,15,57,20.20
2008,09,30,15,58,20.10
2008,09,30,15,59,20.00
2008,09,30,16,00,19.90
2008,09,30,16,01,19.80
2008,09,30,16,02,19.80
2008,09,30,16,03,19.80
2008,09,30,16,04,19.80
2008,09,30,16,05,19.80
2008,09,30,16,06,19.70
2008,09,30,16,07,19.70
2008,09,30,16,08,19.70
2008,09,30,16,09,19.60
2008,09,30,16,10,19.60
2008,09,30,16,11,19.60
2008,09,30,16,12,19.60
2008,09,30,16,13,19.60
2008,09,30,16,14,19.60
2008,09,30,16,15,19.50
2008,09,30,16,16,19.50
2008,09,30,16,17,19.50
2008,09,30,16,18,19.40
2008,09,30,16,19,19.40
2008,09,30,16,20,19.30
2008,09,30,16,21,19.30
2008,09,30,16,22,19.20
2008,09,30,16,23,19.20
2008,09,30,16,24,19.10
2008,09,30,16,25,19.10
2008,09,30,16,26,19.10
2008,09,30,16,27,19.10
2008,09,30,16,28,19.10
2008,09,30,16,29,19.10
2008,09,30,16,30,19.00
2008,09,30,16,31,19.00
2008,09,30,16,32,18.90
2008,09,30,16,33,18.90
2008,09,30,16,34,18.80
2008,09,30,16,35,18.70
2008,09,30,16,36,18.50
2008,09,30,16,37,18.50
2008,09,30,16,38,18.40
2008,09,30,16,39,18.30
2008,09,30,16,40,18.20
2008,09,30,16,41,18.00
2008,09,30,16,42,17.90
2008,09,30,16,43,17.80
2008,09,30,16,44,17.70
2008,09,30,16,45,17.70
2008,09,30,16,46,17.60
2008,09,30,16,47,17.60
2008,09,30,16,48,17.60
2008,09,30,16,49,17.60
2008,09,30,16,50,17.70
2008,09,30,16,51,17.70
2008,09,30,16,52,17.70
2008,09,30,16,53,17.60
2008,09,30,16,54,17.60
2008,09,30,16,55,17.60
2008,09,30,16,56,17.50
2008,09,30,16,57,17.50
2008,09,30,16,58,17.40
2008,09,30,16,59,17.40
2008,09,30,17,00,17.40
2008,09,30,17,01,17.30
2008,09,30,17,02,17.30
2008,09,30,17,03,17.30
2008,09,30,17,04,17.30
2008,09,30,17,05,17.30
2008,09,30,17,06,17.30
2008,09,30,17,07,17.30
2008,09,30,17,08,17.40
2008,09,30,17,09,17.40
2008,09,30,17,10,17.40
2008,09,30,17,11,17.40
2008,09,30,17,12,17.40
2008,09,30,17,13,17.40
2008,09,30,17,14,17.40
2008,09,30,17,15,17.40
2008,09,30,17,16,17.40
2008,09,30,17,17,17.40
2008,09,30,17,18,17.40
2008,09,30,17,19,17.40
2008,09,30,17,20,17.40
2008,09,30,17,21,17.50